Location: Chakepay
(13.3931°S, 72.1925°W)
Time: 13:43:37
(UTC+00:00)

Cosmos 1943 Rocket - Pass Details

Date: 15 November 2019
Orbit: 811 x 845 km, 71.0° (Epoch: 10 December)

Event Time Altitude Azimuth Distance (km) Brightness Sun altitude
Exits shadow 07:47:00 17° 198° (SSW) 1,972 4.2 -32.6°
Drops below altitude 10° 07:48:27 10° 188° (S) 2,426 4.8 -32.3°
Sets 07:51:07 0° 179° (S) 3,358 5.7 -31.8°
